DELTA 1 DEB, 7026

Orbit data source: Space-Track

DELTA 1 DEB, 7026 is space debris in SSO originally from a launch on Tue, 06 Nov 1973 UTC launched from the Air Force Western Test Range (AFWTR). Debris objects in space refer to the collection of defunct objects orbiting the Earth. Examples of debris include non-operational satellites, rocket bodies, and fragments generated from explosions, collisions, or faulty payload assembly.

Loading next visibility...
Identifier
7026, 1973-086S
Orbit
SSO
Country
Flag of USUS
Related business
Manufacturer
Unknown
Mission
Spacecraft
Bus & Motor
Unknown
Mass
Unknown
Launch date (UTC)
1973-11-06 (52 years ago)
Launch vehicle
Unknown
Launch site
Air Force Western Test Range (AFWTR)
Object type
Payload
Rocket body
Debris
Shape & HBR
Unknown shape, 0.1 m
Radar Cross Section
Small (<0.1 m²)

Expand to show TLE details & history
Last TLE update: 18 hours ago

TLE from 18 hours ago
0 DELTA 1 DEB
1  7026U 73086S   26122.26962281  .00000408  00000-0  24212-2 0  9993
2  7026 102.0867 236.8462 0129265 232.4287 155.2782 12.63874917408836
Epoch: 2026-05-02T06:28Z
TLE epoch observation values (Epoch: 2026-05-02T06:28:15.410Z)
Latitude
27.6748°
Longitude
-86.82459°
Altitude
1,501.742 km
Speed
7.074 km/s
True Right ascension
15h 21m 43s
True Declination
27° 32' 49"
Sunlit
Object was in full shadow at epoch
Visualization orbit readout
Latitude
Unknown
Longitude
Unknown
Altitude
Unknown
Speed
Unknown
Apparent Right ascension
Unknown
Apparent Declination
Unknown
Sunlit
N/A
Visualization observer readout
Local Sidereal Time
08:20:40
Azimuth
Unknown
Elevation
Unknown
Doppler factor
Unknown
Orbital elements
Apogee altitude
1,505.142 km
Perigee altitude
1,303.937 km
Semi-major axis
7,782.677 km
Eccentricity
0.01293
Inclination
102.0867°
RAAN
236.8462°
Arg. of periapsis
232.4287°
True anomaly
155.88871°
Mean anomaly
155.2782°
Eccentric anomaly
155.58434°
Mean motion
3.16118 °/min
Orbital period
113.88 mins
BSTAR
0.0024212
Loading maneuver chart data...
Computing Atmospheric mass density...
Loading historical data...
Loading historical data...
Loading historical data...
Loading historical data...
Loading historical data...
Loading historical data...
Loading historical data...

Documentation

Showing up to 5 results
|